Fulton, NY

1:14 AM EST on December 10, 2016 (GMT -0500)
Oswego County

Weather History for KFZY - February, 2012

Change the Weather History Date:

Wednesday, February 8, 2012

  Actual Average (KSYR) Record (KSYR)
Temperature  
Mean Temperature 25 °F -  
Max Temperature 32 °F 30 °F 60 °F (1925)
Min Temperature 18 °F 12 °F -22 °F (1934)
Degree Days  
Heating Degree Days 40    
Moisture  
Dew Point 17 °F    
Average Humidity 70    
Maximum Humidity 88    
Minimum Humidity 56    
Precipitation  
Precipitation 0.00 in - - ()
Sea Level Pressure  
Sea Level Pressure 30.23 in    
Wind  
Wind Speed 2 mph (SW)    
Max Wind Speed 8 mph    
Max Gust Speed -    
Visibility 10 miles    
Events      
Averages and records for this station are not official NWS values.
T = Trace of Precipitation, MM = Missing Value Source: NWS Daily Summary

Daily Weather History Graph

Daily Weather History Graph

Search for Another Location

Airport or City:

Trip Planner

Search our weather history database for the weather conditions in past years. The results will help you decide how hot, cold, wet, or windy it might be!

Date:

Astronomy

Feb. 08, 2012 Rise Set
Actual Time 7:13 AM EST 5:26 PM EST
Civil Twilight 6:43 AM EST 5:56 PM EST
Nautical Twilight 6:10 AM EST 6:29 PM EST
Astronomical Twilight 5:36 AM EST 7:03 PM EST
Moon 6:47 PM EST (2/8) 7:12 AM EST (2/8)
Length of Visible Light 11h 12m
Length of Day
10h 12m
Full, 99% of the Moon is Illuminated
Feb 8
Full
Feb 14
Last Quarter
Feb 21
New
Feb 29
First Quarter
Mar 8
Full

Hourly Weather History & Observations

Time (EST) Temp. Windchill Dew Point Humidity Pressure Visibility Wind Dir Wind Speed Gust Speed Precip Events Conditions
12:54 AM 19.0 °F - 15.1 °F 85% 30.32 in 9.0 mi Calm Calm - N/A   Mostly Cloudy
1:54 AM 18.0 °F - 15.1 °F 88% 30.32 in 10.0 mi Calm Calm - N/A   Mostly Cloudy
2:54 AM 21.0 °F 16.2 °F 14.0 °F 74% 30.32 in 10.0 mi ESE 3.5 mph - N/A   Overcast
3:54 AM 21.0 °F 16.2 °F 14.0 °F 74% 30.31 in 10.0 mi ESE 3.5 mph - N/A   Overcast
4:42 AM 19.4 °F - 12.2 °F 74% 30.29 in 10.0 mi Calm Calm - N/A   Mostly Cloudy
4:54 AM 19.9 °F - 12.9 °F 74% 30.31 in 10.0 mi Calm Calm - N/A   Scattered Clouds
5:54 AM 19.0 °F - 12.9 °F 77% 30.30 in 10.0 mi Calm Calm - N/A   Clear
6:54 AM 18.0 °F 12.7 °F 12.9 °F 81% 30.30 in 10.0 mi SE 3.5 mph - N/A   Clear
7:54 AM 19.0 °F - 12.9 °F 77% 30.31 in 10.0 mi Calm Calm - N/A   Clear
8:54 AM 21.9 °F - 17.1 °F 82% 30.31 in 10.0 mi Calm Calm - N/A   Clear
9:54 AM 27.0 °F 23.0 °F 19.9 °F 75% 30.30 in 10.0 mi SW 3.5 mph - N/A   Clear
10:33 AM 28.4 °F 21.2 °F 19.4 °F 69% 30.27 in 10.0 mi SW 6.9 mph - N/A   Mostly Cloudy
10:54 AM 30.0 °F 26.5 °F 19.9 °F 66% 30.29 in 10.0 mi Variable 3.5 mph - N/A   Mostly Cloudy
11:01 AM 30.2 °F 23.4 °F 19.4 °F 64% 30.26 in 10.0 mi SW 6.9 mph - N/A   Scattered Clouds
11:54 AM 30.9 °F 25.2 °F 18.0 °F 59% 30.26 in 10.0 mi West 5.8 mph - N/A   Clear
12:54 PM 30.9 °F 26.2 °F 17.1 °F 57% 30.23 in 10.0 mi WSW 4.6 mph - N/A   Clear
1:54 PM 32.0 °F 25.6 °F 19.0 °F 59% 30.20 in 10.0 mi WSW 6.9 mph - N/A   Clear
2:54 PM 32.0 °F 26.4 °F 18.0 °F 56% 30.18 in 10.0 mi West 5.8 mph - N/A   Clear
3:54 PM 30.9 °F - 18.0 °F 59% 30.17 in 10.0 mi Calm Calm - N/A   Clear
4:54 PM 30.0 °F 24.1 °F 18.0 °F 61% 30.15 in 10.0 mi SSW 5.8 mph - N/A   Clear
5:54 PM 28.9 °F - 17.1 °F 61% 30.14 in 10.0 mi Calm Calm - N/A   Clear
6:54 PM 28.9 °F 23.9 °F 17.1 °F 61% 30.14 in 10.0 mi SSW 4.6 mph - N/A   Clear
7:54 PM 28.9 °F 25.2 °F 19.0 °F 67% 30.13 in 10.0 mi WSW 3.5 mph - N/A   Clear
8:54 PM 28.0 °F 24.2 °F 19.0 °F 69% 30.12 in 10.0 mi SW 3.5 mph - N/A   Clear
9:54 PM 27.0 °F 21.6 °F 18.0 °F 69% 30.12 in 10.0 mi WSW 4.6 mph - N/A   Clear
10:54 PM 26.1 °F 17.6 °F 18.0 °F 71% 30.12 in 10.0 mi WSW 8.1 mph - N/A   Clear
11:54 PM 26.1 °F 18.4 °F 17.1 °F 69% 30.12 in 10.0 mi SW 6.9 mph - N/A   Clear